Regional Weather Roundup
Issued by NWS Bismarck, ND

Home | Current Version | Previous Version | Text Only | Print | Product List | Glossary On
Versions: 1 2 3 4 5 6 7 8 9 10 11 12 13 14 15 16 17 18 19 20 21 22 23 24 25 26 27 28 29 30 31 32 33 34 35 36 37 38 39 40 41 42 43 44 45 46 47 48 49 50
000
ASUS43 KBIS 050320
RWRBIS

NWR BROADCAST TEXT
NATIONAL WEATHER SERVICE BISMARCK ND
1000 PM CDT MON MAY 04 2015

NOTE: "FAIR" INDICATES FEW OR NO CLOUDS BELOW 12,000 FEET WITH NO
SIGNIFICANT WEATHER AND/OR OBSTRUCTIONS TO VISIBILITY.


CITY           SKY/WX    TMP DP  RH WIND       PRES   REMARKS
WILLISTON      CLEAR     59  37  44 S16G23    30.04R
MINOT          CLEAR     60  29  30 S12       30.08R
MINOT AFB      CLEAR     54  29  39 S10       30.07R
BISMARCK       PTCLDY    49  30  48 SE6       30.13R
DICKINSON      CLEAR     48  32  53 S13       30.08S
GARRISON         N/A     51  32  48 S7        30.10R
HETTINGER ARPT CLOUDY    51  32  48 SE10      30.11S
JAMESTOWN      CLEAR     53  25  33 SE8       30.15R
BEACH          FAIR      48  32  53 SE14      30.05S
CARRINGTON     FAIR      50  28  43 S10       30.16R HAZE
CROSBY         FAIR      59  39  47 S16       30.03R
HARVEY         FAIR      57  27  30 S12       30.13R
HAZEN          MOCLDY    48  32  53 S8        30.11R
LINTON         MOCLDY    54  32  43 SE8       30.13S
MANDAN         MOCLDY    52  27  37 S7        30.13S
OAKES            N/A     50  28  43 E9        30.17R
STANLEY        FAIR      50  37  62 S9        30.09R
TIOGA          FAIR      52  36  54 S10       30.10R
WATFORD CITY   FAIR      55  36  47 N6        30.04R
$$

CITY           SKY/WX    TMP DP  RH WIND       PRES   REMARKS
GRAND FORKS    CLEAR     56  27  32 SE7       30.16R
GRAND FORKS AF CLEAR     49  28  43 S5        30.16R
DEVILS LAKE    CLEAR     54  36  50 SE8       30.15R
FARGO          CLEAR     59  25  27 S3        30.17R
CANDO          FAIR      48  23  37 SE8       30.15R
CAVALIER       FAIR      52  32  46 CALM      30.15S HAZE
GRAFTON        FAIR      52  28  40 S7        30.17R
GWINNER        CLEAR     54  28  37 E8        30.19R
LANGDON        FAIR      46  23  39 SE10      30.16S
WALHALLA       FAIR      52  32  46 CALM      30.15R
$$

CITY           SKY/WX    TMP DP  RH WIND       PRES   REMARKS
ABERDEEN       PTCLDY    59  28  30 E9        30.14R
MOBRIDGE       CLOUDY    60  24  25 E10       30.10S
BUFFALO          N/A     50  31  48 SE13      30.01S
RAPID CITY     CLOUDY    52  39  61 S6        30.11R
GLASGOW        CLEAR     61  40  45 SE16      29.87S
SIDNEY         CLEAR     55  34  44 SE12      30.03R
WOLF POINT     CLEAR     61  38  42 SE7       29.94R
GLENDIVE       CLEAR     55  32  41 SE18G24   30.01R
MILES CITY     CLEAR     59  39  47 SE17G29   29.92R
BAKER          CLEAR     51  32  48 SE23      30.03S
$$

CITY           SKY/WX    TMP DP  RH WIND       PRES   REMARKS
BILLINGS       PTCLDY    65  39  38 S5        29.86R
GREAT FALLS    CLEAR     58  21  24 W5        29.77S
REGINA         PTCLDY    59  32  36 SE16      29.92S
ESTEVAN        CLEAR     59  37  44 S16       30.03R
$$



USA.gov is the U.S. government's official web portal to all federal, state and local government web resources and services.